Location: Écuvilly
(49.6505°N, 2.9206°E)
Time: 18:02:15
(UTC+00:00)

Cosmos 1844 Rocket - Pass Details

Date: 17 November 2025
Orbit: 823 x 844 km, 71.0° (Epoch: 09 December)

Event Time Altitude Azimuth Distance (km) Brightness Sun altitude
Rises 16:26:25 0° 235° (SW) 3,352 8.1 -4.2°
Reaches altitude 10° 16:29:01 10° 244° (WSW) 2,424 7.1 -4.6°
Maximum altitude 16:34:08 36° 311° (NW) 1,282 4.0 -5.4°
Drops below altitude 10° 16:39:17 10° 18° (NNE) 2,447 4.7 -6.1°
Sets 16:41:57 0° 26° (NNE) 3,388 5.4 -6.5°
